Location: ????
(30.1475°N, 31.1342°E)
Time: 13:47:13
(UTC+00:00)

Cosmos 2056 Rocket - Pass Details

Date: 27 September 2022
Orbit: 741 x 801 km, 74.0° (Epoch: 26 November)

Event Time Altitude Azimuth Distance (km) Brightness Sun altitude
Exits shadow 01:33:14 49° 131° (SE) 961 4.1 -29.3°
Maximum altitude 01:33:55 53° 102° (ESE) 918 4.1 -29.1°
Drops below altitude 10° 01:38:52 10° 27° (NNE) 2,258 6.4 -28.1°
Sets 01:41:15 0° 23° (NNE) 3,181 7.2 -27.6°
